• Join FlightAware (Why Join?)
  • Login
  • US Flag 
06:15AM EST


 

Airport Tracker/Info


-or-


 

Live Flight TrackerFlight Track Log ✈ UAL4457 ✈ 23-Apr-2013 ✈ KLEX - KIAH

Flight Track Log - Related Links

Times and Time Zones

All times are in EDT time to prevent confusion due to time zone crossing. See the UAL4457 flight status page for this flight to view local times or setup timezone preferences in your user account.

Time Position Orientation Groundspeed Altitude Reporting Facility
EDT Latitude Longitude Course Direction KTS MPH feet Rate Location/Type
05:25PM 37.9753 -84.6792 225° Southwest 208 239 5,400  Level Indianapolis Center
05:26PM 37.9289 -84.7347 223° Southwest 220 253 8,300 2,580 Climbing Indianapolis Center
05:27PM 37.8831 -84.7967 227° Southwest 241 277 10,800 2,040 Climbing Indianapolis Center
05:28PM 37.8575 -85.0332 241° Southwest  Level FlightAware Approximate
05:28PM 37.8453 -84.8900 243° Southwest 295 339 12,600  Level Indianapolis Center
05:29PM 37.8139 -85.1418 247° West  Level FlightAware Approximate
05:29PM 37.8019 -85.0017 244° Southwest 307 353 15,200  Level Indianapolis Center
05:30PM 37.7631 -85.1036 244° Southwest 318 366 17,200 1,740 Climbing Indianapolis Center
05:31PM 37.7222 -85.2089 244° Southwest 330 380 18,900 1,740 Climbing Indianapolis Center
05:32PM 37.6797 -85.3172 244° Southwest 341 392 20,800 1,800 Climbing Indianapolis Center
05:33PM 37.6353 -85.4278 243° Southwest 349 402 22,700 1,740 Climbing Indianapolis Center
05:35PM 37.5914 -85.5417 244° Southwest 349 402 24,400 1,500 Climbing Indianapolis Center
05:36PM 37.5447 -85.6556 243° Southwest 358 412 25,900 1,380 Climbing Indianapolis Center
05:37PM 37.5000 -85.7700 244° Southwest 362 417 27,300 1,200 Climbing Indianapolis Center
05:38PM 37.4467 -85.9017 243° Southwest 369 425 28,400 960 Climbing Indianapolis Center
05:39PM 37.4000 -86.0208 244° Southwest 375 432 29,400 900 Climbing Indianapolis Center
05:40PM 37.3514 -86.1411 243° Southwest 381 438 30,300 900 Climbing Indianapolis Center
05:41PM 37.3011 -86.2628 243° Southwest 389 448 31,300 900 Climbing Indianapolis Center
05:42PM 37.2419 -86.4097 243° Southwest 394 453 32,400 960 Climbing Memphis Center
05:43PM 37.1917 -86.5344 243° Southwest 399 459 33,400 780 Climbing Memphis Center
05:44PM 37.1414 -86.6592 243° Southwest 399 459 34,000 300 Climbing Memphis Center
05:45PM 37.0869 -86.7944 243° Southwest 399 459 34,000  Level Memphis Center
05:46PM 37.0342 -86.9214 243° Southwest 399 459 34,000  Level Memphis Center
05:47PM 36.9836 -87.0458 243° Southwest 399 459 34,000  Level Memphis Center
05:48PM 36.9325 -87.1697 243° Southwest 399 459 34,000  Level Memphis Center
05:49PM 36.8794 -87.2939 242° Southwest 399 459 34,000  Level Memphis Center
05:50PM 36.8281 -87.4150 242° Southwest 399 459 34,000  Level Memphis Center
05:51PM 36.7747 -87.5414 242° Southwest 399 459 34,000  Level Memphis Center
05:52PM 36.7233 -87.6672 243° Southwest 404 465 34,000  Level Memphis Center
05:53PM 36.6719 -87.7906 243° Southwest 409 471 34,000  Level Memphis Center
05:54PM 36.6161 -87.9139 241° Southwest 409 471 34,000  Level Memphis Center
05:55PM 36.5664 -88.0369 243° Southwest 409 471 34,000  Level Memphis Center
05:56PM 36.5183 -88.1467 241° Southwest 409 471 34,000  Level Memphis Center
05:57PM 36.4661 -88.2694 242° Southwest 409 471 34,000  Level Memphis Center
05:58PM 36.4119 -88.3919 241° Southwest 409 471 34,000  Level Memphis Center
05:59PM 36.3594 -88.5144 242° Southwest 404 465 34,000  Level Memphis Center
06:00PM 36.3050 -88.6367 241° Southwest 404 465 34,000  Level Memphis Center
06:01PM 36.2503 -88.7589 241° Southwest 404 465 34,000  Level Memphis Center
06:02PM 36.1978 -88.8756 241° Southwest 399 459 34,000  Level Memphis Center
06:03PM 36.1386 -89.0078 241° Southwest 399 459 34,000  Level Memphis Center
06:04PM 36.0858 -89.1292 242° Southwest 399 459 34,000  Level Memphis Center
06:05PM 36.0306 -89.2508 241° Southwest 399 459 34,000  Level Memphis Center
06:06PM 35.9775 -89.3719 242° Southwest 399 459 34,000  Level Memphis Center
06:07PM 35.9094 -89.4806 232° Southwest 399 459 34,000  Level Memphis Center
06:08PM 35.8267 -89.5811 225° Southwest 409 471 34,000  Level Memphis Center
06:09PM 35.7458 -89.6767 224° Southwest 414 476 34,000  Level Memphis Center
06:10PM 35.6650 -89.7769 225° Southwest 409 471 34,000  Level Memphis Center
06:11PM 35.5822 -89.8772 225° Southwest 409 471 34,000  Level Memphis Center
06:12PM 35.5011 -89.9744 224° Southwest 409 471 34,000  Level Memphis Center
06:13PM 35.4200 -90.0742 225° Southwest 409 471 34,000  Level Memphis Center
06:15PM 35.2556 -90.2681 224° Southwest 409 471 34,000  Level Memphis Center
06:16PM 35.1764 -90.3647 225° Southwest 409 471 34,000  Level Memphis Center
06:17PM 35.0908 -90.4611 223° Southwest 409 471 34,000  Level Memphis Center
06:18PM 35.0092 -90.5600 225° Southwest 409 471 34,000  Level Memphis Center
06:19PM 34.9278 -90.6558 224° Southwest 409 471 34,000  Level Memphis Center
06:20PM 34.8481 -90.7594 227° Southwest 409 471 34,000  Level Memphis Center
06:21PM 34.7664 -90.8525 223° Southwest 409 471 34,000  Level Memphis Center
06:22PM 34.6847 -90.9481 224° Southwest 409 471 34,000  Level Memphis Center
06:23PM 34.5986 -91.0458 223° Southwest 414 476 34,000  Level Memphis Center
06:24PM 34.5189 -91.1411 225° Southwest 409 471 34,000  Level Memphis Center
06:25PM 34.4347 -91.2386 224° Southwest 409 471 34,000  Level Memphis Center
06:26PM 34.3525 -91.3358 224° Southwest 409 471 34,000  Level Memphis Center
06:27PM 34.2703 -91.4328 224° Southwest 409 471 34,000  Level Memphis Center
06:28PM 34.1839 -91.5272 222° Southwest 409 471 34,000  Level Memphis Center
06:29PM 34.1017 -91.6239 224° Southwest 414 476 34,000  Level Memphis Center
06:30PM 34.0192 -91.7231 225° Southwest 419 482 34,000  Level Memphis Center
06:31PM 33.9367 -91.8169 223° Southwest 413 475 34,000  Level Memphis Center
06:32PM 33.8564 -91.9106 224° Southwest 407 468 34,000  Level Memphis Center
06:33PM 33.7372 -92.0436 223° Southwest 415 478 34,000  Level Fort Worth Center
06:34PM 33.6575 -92.1333 223° Southwest 410 472 34,000  Level Fort Worth Center
06:35PM 33.5736 -92.2231 222° Southwest 410 472 34,000  Level Fort Worth Center
06:36PM 33.4939 -92.3150 224° Southwest 410 472 34,000  Level Fort Worth Center
06:37PM 33.4119 -92.4019 222° Southwest 410 472 34,000  Level Fort Worth Center
06:38PM 33.2964 -92.4358 194° South 403 464 34,000  Level Fort Worth Center
06:39PM 33.1761 -92.4575 189° South 416 479 34,000  Level Fort Worth Center
06:40PM 33.0539 -92.4792 188° South 435 501 34,000  Level Fort Worth Center
06:41PM 32.9336 -92.5006 188° South 441 507 34,000  Level Fort Worth Center
06:42PM 32.8114 -92.5244 189° South 446 513 34,000  Level Fort Worth Center
06:43PM 32.6869 -92.5461 188° South 446 513 34,000  Level Fort Worth Center
06:45PM 32.4872 -92.5836 189° South 445 512 34,000  Level Houston Center
06:46PM 32.3650 -92.6075 189° South 447 514 34,000  Level Houston Center
06:47PM 32.2428 -92.6286 188° South 444 511 34,000  Level Houston Center
06:48PM 32.0967 -92.6558 189° South 442 509 34,000 -420 Level Houston Center
06:49PM 31.9761 -92.6794 189° South 441 507 33,200 -840 Descending Houston Center
06:50PM 31.8853 -92.7614 217° Southwest 412 474 32,300 -600 Descending Houston Center
06:51PM 31.7981 -92.8461 220° Southwest 409 471 32,000 -180 Descending Houston Center
06:52PM 31.7106 -92.9303 219° Southwest 408 470 32,000  Level Houston Center
06:53PM 31.6231 -93.0153 220° Southwest 410 472 32,000  Level Houston Center
06:54PM 31.5169 -93.1181 220° Southwest 412 474 32,000  Level Houston Center
06:55PM 31.4267 -93.2031 219° Southwest 416 479 32,000  Level Houston Center
06:56PM 31.3372 -93.2892 219° Southwest 411 473 32,000  Level Houston Center
06:57PM 31.2517 -93.3708 219° Southwest 407 468 32,000 -60 Level Houston Center
06:59PM 31.1658 -93.4531 219° Southwest 402 463 31,900  Descending Houston Center
07:00PM 31.0617 -93.5517 219° Southwest 402 463 32,000 -840 Climbing Houston Center
07:01PM 30.9758 -93.6328 219° Southwest 400 460 30,200 -1,860 Descending Houston Center
07:02PM 30.8886 -93.7156 219° Southwest 406 467 28,200 -1,980 Descending Houston Center
07:03PM 30.8022 -93.7975 219° Southwest 403 464 26,100 -1,860 Descending Houston Center
07:04PM 30.7175 -93.8764 219° Southwest 394 453 24,400 -1,260 Descending Houston Center
07:05PM 30.6203 -93.9686 219° Southwest 379 436 23,500 -1,680 Descending Houston Center
07:06PM 30.5417 -94.0436 219° Southwest 371 427 21,000 -2,640 Descending Houston Center
07:06PM 30.4922 -94.0881 218° Southwest 365 420 19,300 -2,880 Descending Houston Center
07:07PM 30.4672 -94.1108 218° Southwest 362 417 18,500 -2,280 Descending Houston Center
07:08PM 30.3867 -94.1881 220° Southwest 359 413 16,000 -2,040 Descending Houston Center
07:09PM 30.3122 -94.2569 219° Southwest 347 399 14,100 -2,040 Descending Houston Center
07:10PM 30.2364 -94.3256 218° Southwest 324 373 12,200 -1,440 Descending Houston Center
07:11PM 30.1900 -94.4092 237° Southwest 322 371 11,400 -1,080 Descending Houston Center
07:12PM 30.1731 -94.5086 259° West 292 336 9,800 -1,560 Descending Houston Center
07:13PM 30.1575 -94.5922 258° West 270 311 8,300 -1,740 Descending Houston Center
07:14PM 30.1428 -94.6789 259° West 272 313 6,700 -1,140 Descending Houston Center
07:15PM 30.1300 -94.7625 260° West 258 297 6,000 -600 Descending Houston Center
07:15PM 30.1278 -94.7775 260° West 263 303 6,000  Level Houston Center
07:16PM 30.1147 -94.8467 258° West 259 298 6,000  Level Houston Center
07:16PM 30.1128 -94.8578 259° West 258 297 6,000  Level Houston Center
07:17PM 30.1042 -94.9325 262° West 267 307 6,000  Level Houston Center
07:17PM 30.1050 -94.9408 277° West 262 302 6,000  Level Houston Center
07:18PM 30.1058 -95.0169 271° West 267 307 6,000  Level Houston Center
07:18PM 30.1061 -95.0250 272° West 263 303 6,000  Level Houston Center
07:19PM 30.1058 -95.1064 270° West 269 310 6,000  Level Houston Center
07:19PM 30.1067 -95.1289 272° West 271 312 6,000  Level Houston Center
07:20PM 30.1053 -95.1933 269° West 271 312 6,000  Level Houston Center
07:20PM 30.1067 -95.2150 274° West 270 311 6,000  Level Houston Center
07:21PM 30.1053 -95.2828 269° West 269 310 6,000  Level Houston Center
07:21PM 30.1067 -95.3006 275° West 268 308 6,000 -540 Level Houston Center
07:22PM 30.1067 -95.3669 270° West 261 300 5,500 -900 Descending Houston Center
07:22PM 30.1072 -95.3842 272° West 264 304 5,100 -1,620 Descending Houston Center
07:23PM 30.1017 -95.4522 265° West 246 283 3,900 -1,500 Descending Houston Center
07:23PM 30.1014 -95.4639 268° West 253 291 3,600 -900 Descending Houston Center
07:24PM 30.0900 -95.5308 259° West 244 281 3,000 -600 Descending Houston Center
07:24PM 30.0758 -95.5475 226° Southwest 246 283 3,000  Level Houston Center